Погода в Лимоне

Коста-Рика     9°59′11″N   83°04′10″W
темп.,
°C
ветер,
м/с
пор.,
м/с
влажн.,
%
обл.,
%
осадки,
мм/ч
давл.,
гПа
погр.,
м
10 апреля, сб
сб1000:00+24ю2282100 0.2 1010160
03:00+25зсз1182100 0.0 1009185
06:00+24з2283100 0.0 1011147
09:00+27ссз227339 0.0 1012432
12:00+28ссв227360 0.0 1010549
15:00+28св2274100 0.2 1008518
18:00+26сз1181100 0.3 1009320
21:00+26зюз1185100 1.1 101060
11 апреля, вс
вс1100:00+25з2287100 2.1 1010108
03:00+25з228610 0.1 1008154
06:00+25з228412 0.1 1010172
09:00+27ссз22735 0.0 1011434
12:00+28ссв32739 0.1 1008627
15:00+28св3374100 0.1 1007631
18:00+27в1279100 0.1 1008424
21:00+26ююв1282100 0.1 1009202
12 апреля, пн
пн1200:00+26юз1185100 0.1 1009126
03:00+25ююз228752 0.1 1008125
06:00+25ююз12825 0.1 1010101
09:00+28св11725 0.2 1011472
12:00+29всв326914 0.3 1009745
15:00+28св3270100 0.1 1007688
18:00+27св1277100 0.1 1008378
21:00+26ююз11813 0.5 101046
13 апреля, вт
вт1300:00+26юз11845 1.0 100990
03:00+25юз118545 0.1 100978
06:00+25з118439 1.0 1011103
09:00+28ссв117319 0.0 1012463
12:00+28св43728 0.2 1010709
15:00+28ссв4475100 0.9 1009639
18:00+26св128598 3.4 1010101
21:00+25ю1183100 0.9 1012100
14 апреля, ср
ср1400:00+25зюз118558 0.9 1011117
03:00+24з22865 0.0 1010155
06:00+25зсз33857 0.4 1011209
09:00+27сз337512 0.3 1013512
12:00+28ссв337476 1.2 1011601
15:00+27ссв238094 3.4 1009320
18:00+26ссз1283100 7.6 1010103
21:00+25з228420 0.4 1012202